This is the latest recevied weather packets stored in our database for station/object OK1HOL-13. If no packets are shown the sender has not sent any weather packets the latest 10 day(s).
| Time | Temp. | Humidity | Pressure | Rain* | Wind** | Luminosity | Snow |
|---|---|---|---|---|---|---|---|
| 1778180167 | 13.33° C | 76% | 1014.9 hPa | - | - | 0 W/m² | - |
| 1778179567 | 13.33° C | 76% | 1014.8 hPa | - | - | 0 W/m² | - |
| 1778178967 | 13.89° C | 74% | 1014.7 hPa | - | - | 0 W/m² | - |
| 1778178367 | 13.89° C | 71% | 1014.5 hPa | - | - | 1 W/m² | - |
| 1778177767 | 13.89° C | 72% | 1014.4 hPa | - | - | 1 W/m² | - |
| 1778177167 | 13.89° C | 69% | 1014.3 hPa | - | - | 2 W/m² | - |
| 1778176567 | 13.89° C | 66% | 1014.3 hPa | - | - | 4 W/m² | - |
| 1778175967 | 14.44° C | 63% | 1014.2 hPa | - | - | 4 W/m² | - |
| 1778175367 | 15° C | 63% | 1013.9 hPa | - | - | 5 W/m² | - |
| 1778174767 | 15° C | 61% | 1013.7 hPa | - | - | 7 W/m² | - |
| 1778174167 | 15° C | 61% | 1013.6 hPa | - | - | 12 W/m² | - |
| 1778173567 | 15.56° C | 59% | 1013.6 hPa | - | - | 18 W/m² | - |
| 1778172967 | 15.56° C | 59% | 1013.6 hPa | - | - | 19 W/m² | - |
| 1778172367 | 16.11° C | 57% | 1013.5 hPa | - | - | 9 W/m² | - |
| 1778171767 | 15.56° C | 56% | 1013.4 hPa | - | - | 26 W/m² | - |
| 1778171167 | 15.56° C | 55% | 1013.4 hPa | - | - | 27 W/m² | - |
| 1778170567 | 16.11° C | 53% | 1013.4 hPa | - | - | 23 W/m² | - |
| 1778169967 | 16.11° C | 54% | 1013.3 hPa | - | - | 33 W/m² | - |
| 1778169367 | 16.11° C | 53% | 1013.3 hPa | - | - | 33 W/m² | - |
| 1778168767 | 16.67° C | 52% | 1013.1 hPa | - | - | 31 W/m² | - |
| 1778168167 | 16.67° C | 52% | 1013 hPa | - | - | 55 W/m² | - |
| 1778167567 | 17.22° C | 50% | 1012.9 hPa | - | - | 66 W/m² | - |
| 1778166967 | 16.67° C | 50% | 1012.9 hPa | - | - | 75 W/m² | - |
| 1778166367 | 16.67° C | 50% | 1012.9 hPa | - | - | 73 W/m² | - |
| 1778165167 | 17.22° C | 47% | 1012.6 hPa | - | - | 52 W/m² | - |
* Rain since midnight (hover to see other rain measurements)
** Current wind speed in m/s (hover to see current wind gust speed)